Regional Weather Roundup
Issued by NWS

Home | Current Version | Previous Version | Text Only | Print | Product List | Glossary On
Versions: 1 2 3 4 5 6 7 8 9 10 11 12 13 14 15 16 17 18 19 20 21 22 23 24 25 26 27 28 29 30 31 32 33 34 35 36 37 38 39 40 41 42 43 44 45 46 47 48 49 50
000
ASUS43 KDMX 030507
RWRIA

WEATHER ROUNDUP FOR IOWA
NATIONAL WEATHER SERVICE DES MOINES IA
1200 AM CDT WED JUN 03 2015

NOTE: "FAIR" INDICATES FEW OR NO CLOUDS BELOW 12,000 FEET WITH NO
SIGNIFICANT WEATHER AND/OR OBSTRUCTIONS TO VISIBILITY.

* - THESE STATIONS ARE NOT NWS STATIONS...THUS NOT UNDER NWS
QUALITY CONTROL.  THEY ALSO DO NOT REPORT WEATHER SUCH
AS PRECIPITATION OR FOG.

IAZ001>003-012>014-020>022-031>034-043>046-030600-
   NORTHWEST IOWA

CITY           SKY/WX    TMP DP  RH WIND       PRES   REMARKS
CARROLL *      PTCLDY    63  55  77 SE8       29.93F
CHEROKEE *     CLEAR     64  57  77 S9        29.91R
DENISON *      CLOUDY    63  59  88 S10G17    29.90R
LE MARS *      CLEAR     66  59  77 S12       29.90R
ORANGE CITY *  CLEAR     64  57  77 S12G18    29.89R
SHELDON *      PTCLDY    66  57  72 S16       29.88R
SIOUX CITY     MOCLDY    66  58  75 S12       29.89R
SPENCER        CLEAR     65  57  75 S16       29.90F
STORM LAKE *   CLEAR     63  55  77 S14G20    29.93R
$$

IAZ055>058-069>071-079>083-090>094-030600-
   SOUTHWEST IOWA

CITY           SKY/WX    TMP DP  RH WIND       PRES   REMARKS
ATLANTIC *     PTCLDY    64  57  77 S9        29.93S
AUDUBON *      CLEAR     63  57  82 S3        29.94F
CLARINDA *     CLEAR     63  59  88 S7        29.95F
COUNCIL BLFS * CLEAR     63  63 100 SE12      29.92R
CRESTON *      CLEAR     61  57  88 SE9       29.96F
HARLAN  *      PTCLDY    64  63  94 S9G15     29.96S
LAMONI         CLOUDY    65  57  75 SE8       29.98R
RED OAK *      CLEAR     64  59  82 S12       29.93S
SHENANDOAH *   PTCLDY    63  59  88 SE9       29.92F
$$

IAZ047>049-059>061-072>074-084-030600-
   CENTRAL IOWA

CITY           SKY/WX    TMP DP  RH WIND       PRES   REMARKS
AMES           MOCLDY    61  54  77 SE10      29.97S
ANKENY *       CLEAR     63  57  82 SE9       29.97F
CHARITON *       N/A     61  57  88 SE9       29.98F
DES MOINES     CLOUDY    63  55  75 S9        29.98R
GRINNELL*      MOCLDY    59  55  88 SE6       30.01S
KNOXVILLE *    CLEAR     61  55  82 SE9       29.98S
MARSHALLTOWN   MOCLDY    61  55  81 S8        29.98F
PELLA *        MOCLDY    60  58  93 S7        30.01S
PERRY *          N/A     61  55  82 SE8       29.96S
$$

IAZ004>006-015-016-023>025-035-036-030600-
   NORTH CENTRAL IOWA

CITY           SKY/WX    TMP DP  RH WIND       PRES   REMARKS
ALGONA *       CLEAR     64  55  72 S16       29.94F
CLARION *      CLEAR     63  54  72 S14       29.96S
ESTHERVILLE    CLEAR     64  55  72 S20       29.90F
FORT DODGE *   CLEAR     63  54  72 S7        29.97R
MASON CITY     CLEAR     61  54  77 S12       29.98S
FOREST CITY *  CLEAR     61  54  77 S9        29.96S
IOWA FALLS *     N/A     61  54  77 SE9       29.99S
$$

IAZ007>011-017>019-026>030-037>042-050>054-066-030600-
   NORTHEAST IOWA

CITY           SKY/WX    TMP DP  RH WIND       PRES   REMARKS
CEDAR RAPIDS   MOCLDY    59  55  87 SE5       30.00F
CHARLES CITY * CLEAR     61  55  82 S9        30.00S
CLINTON *      MOCLDY    61  48  63 S6        30.06F
DECORAH *      PTCLDY    59  50  72 SE6       30.00S
DUBUQUE        MOCLDY    59  49  69 SE8       30.03S
MONTICELLO *   CLEAR     61  54  77 SE6       30.01F
OELWEIN *      MOCLDY    61  55  82 S7        30.02R
WATERLOO       MOCLDY    61  54  77 S7        29.99S
$$

IAZ064-065-067-068-078-030600-
   EAST CENTRAL IOWA

CITY           SKY/WX    TMP DP  RH WIND       PRES   REMARKS
DAVENPORT      PTCLDY    60  50  69 S5        30.04S
IOWA CITY      MOCLDY    61  56  83 SE3       30.02S
MT. PLEASANT * PTCLDY    57  55  94 SE6       30.02S
MUSCATINE *    CLEAR     61  55  82 CALM      30.03R
QUAD CITIES    PTCLDY    60  51  72 S6        30.03S
$$

IAZ062-063-075>077-085>089-095>099-030600-
   SOUTHEAST IOWA

CITY           SKY/WX    TMP DP  RH WIND       PRES   REMARKS
BURLINGTON     CLEAR     59  55  87 S3        30.02S
FAIRFIELD *    CLEAR     57  54  88 SE5       30.02S
FORT MADISON *   N/A     59  55  88 CALM      30.03S
KEOKUK *       CLEAR     57  57 100 CALM      30.01S
OSKALOOSA *      N/A     57  55  94 SE7       30.00F
CENTERVILLE *  CLEAR     57  57 100 SE7       30.02S
OTTUMWA        MOCLDY    59  56  89 S7        30.00F
WASHINGTON *   CLEAR     57  54  88 S6        30.03S
$$

ABBREVIATIONS USED IN REMARKS
   TC - TEMPERATURES IN CELSIUS
  WCI - WIND CHILL INDEX
   HX - HEAT INDEX
  VSB - VISIBILITY
$$




USA.gov is the U.S. government's official web portal to all federal, state and local government web resources and services.